Regional Weather Roundup
Issued by NWS Little Rock, AR

Home | Current Version | Previous Version | Graphics & Text | Print | Product List | Glossary On
Versions: 1 2 3 4 5 6 7 8 9 10 11 12 13 14 15 16 17 18 19 20 21 22 23 24 25 26 27 28 29 30 31 32 33 34 35 36 37 38 39 40 41 42 43 44 45 46 47 48 49 50
000
ASUS44 KLZK 010505
RWRLZK

WEATHER ROUNDUP FOR ARKANSAS
NATIONAL WEATHER SERVICE LITTLE ROCK AR
1200 AM CDT MON SEP 01 2014

NOTE: "FAIR" INDICATES FEW OR NO CLOUDS BELOW 12,000 FEET WITH NO
SIGNIFICANT WEATHER AND/OR OBSTRUCTIONS TO VISIBILITY.

ARZ001-003-010-029-010600-
NORTHWEST ARKANSAS

CITY           SKY/WX    TMP DP  RH WIND       PRES   REMARKS
FAYETTEVILLE   CLEAR     76  71  85 S15       29.89F
FORT SMITH     CLEAR     80  72  76 SE3       29.88S
HARRISON       PTCLDY    75  71  87 S8        29.93S
BENTONVILLE    CLEAR     77  70  78 S13       29.90S
ROGERS         CLEAR     77  70  79 S13       29.91R
HIGHFILL       CLEAR     78  70  76 S14       29.88S
$$

ARZ004-005-016-010600-
NORTH CENTRAL ARKANSAS

CITY           SKY/WX    TMP DP  RH WIND       PRES   REMARKS
BATESVILLE     CLOUDY    77  72  83 S7        29.94S
FLIPPIN        CLEAR     75  68  78 S5        29.92S
MTN HOME       PTCLDY    75  72  90 S6        29.92R
$$

ARZ040-041-010600-
WEST CENTRAL ARKANSAS

CITY           SKY/WX    TMP DP  RH WIND       PRES   REMARKS
MENA           CLEAR     79  72  78 S3        29.96S
MOUNT IDA      CLEAR     79  70  74 S3        29.93S
$$

ARZ009-017-025-026-028-010600-
NORTHEAST ARKANSAS

CITY           SKY/WX    TMP DP  RH WIND       PRES   REMARKS
CORNING          N/A     75  73  94 S9        29.94S
JONESBORO      CLEAR     76  71  85 SW10      29.95S
NEWPORT        CLEAR     76  72  87 S8        29.96S
WALNUT RIDGE   CLEAR     75  68  78 S8        29.93F
BLYTHEVILLE    CLEAR     76  74  93 S7        29.97R
$$

ARZ022-023-033-042-044-010600-
CENTRAL ARKANSAS

CITY           SKY/WX    TMP DP  RH WIND       PRES   REMARKS
LITTLE ROCK    PTCLDY    76  71  85 S12       29.96S
N LITTLE ROCK  PTCLDY    76  74  93 S9G15     29.96S
JACKSONVILLE   CLEAR     76  72  87 S8        29.95F
SEARCY         PTCLDY    76  73  90 MISG      29.96S
HOT SPRINGS    PTCLDY    76  72  87 S5        29.97R
RUSSELLVILLE   CLEAR     77  72  84 SE3       29.93R
$$

ARZ036-010600-
EAST ARKANSAS

CITY           SKY/WX    TMP DP  RH WIND       PRES   REMARKS
WEST MEMPHIS   CLEAR     75  75 100 S9        29.97S
$$

ARZ050-053-066-070-073-010600-
SOUTHWEST ARKANSAS

CITY           SKY/WX    TMP DP  RH WIND       PRES   REMARKS
ARKADELPHIA    FAIR      74  74 100 CALM      29.97S
CAMDEN         CLEAR     75  72  88 S5        29.97S
TEXARKANA      CLEAR     77  70  79 S12       29.95S
EL DORADO      CLEAR     75  73  93 S7        29.98S
DE QUEEN       CLEAR     78  71  79 S6        29.92R
$$

ARZ056-057-069-010600-
SOUTHEAST ARKANSAS

CITY           SKY/WX    TMP DP  RH WIND       PRES   REMARKS
PINE BLUFF     CLEAR     74  70  87 S7        29.97S
STUTTGART      CLEAR     75  72  88 S10       29.97S
MONTICELLO     CLEAR     76  73  91 S6        29.98F

$$




USA.gov is the U.S. government's official web portal to all federal, state and local government web resources and services.